[[{"header":{"parameterUnit":"m.s-1","parameterCategory":1,"la1":30.2991,"la2":30.254,"lo1":-89.0895,"lo2":-89.0444,"dy":0.0017,"dx":0.0017,"nx":28,"ny":28,"refTime":"2025-03-04T09:00:00:Z","depth":0,"parameterNumber":2,"parameterNumberName":"U-component_of_WINDS"},"data":[0,0,0,0,0,0,0,0,0,0,0,0,0,0,0,0,0,0,0,0,0,0,0,0,0,0,0,0,0,0,0,0,0,0,0,0,0,0,0,0,0,0,0,0,0,0,0,0,0,0,0,0,0,0,0,0,0,0,7.8663,7.8665,0,7.8838,7.884,7.8842,7.8811,7.8808,7.8804,7.8801,7.8984,7.8992,7.8999,0,0,0,0,0,0,0,0,0,0,0,0,0,7.8306,7.8312,7.8662,7.8665,7.8667,7.8838,7.884,7.8842,7.8811,7.8807,7.8804,7.88,7.8982,7.8991,7.9,0,0,0,0,0,0,0,0,0,0,0,0,0,7.8469,7.8315,7.8662,7.8672,7.8674,7.8837,7.884,7.8843,7.8812,7.8807,7.8803,7.8798,7.8979,7.899,7.9001,7.9166,0,0,7.9037,7.9042,0,0,0,0,0,0,0,0,7.846,7.8482,7.8668,7.8671,7.8675,7.8798,7.8781,7.8952,7.8813,7.876,7.8801,7.8796,7.8926,7.8942,7.8985,7.9175,7.9183,7.9038,7.9045,7.905,7.9053,0,0,0,0,0,0,0,7.8448,7.8474,7.8732,7.8671,7.8675,7.8669,7.8687,7.8813,7.8867,7.8764,7.8762,7.8783,7.8927,7.8974,7.8989,7.9185,7.9038,7.9048,7.9055,7.906,7.9525,7.953,0,0,0,0,0,0,7.8434,7.8465,7.8726,7.8737,7.8553,7.8679,7.8699,7.8763,7.8866,7.8877,7.8787,7.8781,7.8956,7.8975,7.8995,7.9199,7.905,7.9061,7.9067,7.9519,7.9526,7.9532,0,0,0,0,0,0,7.8426,7.8457,7.8719,7.8601,7.8634,7.869,7.8762,7.8769,7.8816,7.8883,7.8893,7.8825,7.8953,7.8979,7.9125,7.9204,7.9066,7.9077,7.9513,7.9521,7.9529,7.9604,0,0,0,0,0,0,7.8416,7.8455,7.8516,7.8602,7.864,7.8845,7.8767,7.8776,7.8835,7.8829,7.8921,7.8932,7.8952,7.9108,7.9137,7.9218,7.9086,7.9506,7.9517,7.9526,7.9595,7.9614,7.963,0,0,0,0,0,7.8403,7.853,7.852,7.8551,7.8719,7.8849,7.8871,7.889,7.8842,7.8906,7.895,7.8929,7.9191,7.9123,7.9155,7.9241,7.9501,7.9514,7.9526,7.9587,7.961,7.963,0,0,0,0,0,0,7.8452,7.8542,7.8531,7.8689,7.8762,7.8844,7.8924,7.8914,7.9002,7.8993,7.9014,7.9036,7.9185,7.9227,7.915,7.9409,7.9339,7.9359,7.9375,7.9398,7.9415,7.9403,7.9095,0,0,0,0,0,7.8482,7.8579,7.8652,7.8785,7.8822,7.8867,7.8925,7.8934,7.901,7.9041,7.9095,7.9172,7.9272,7.9337,7.9432,7.9601,7.9622,7.9676,7.9694,7.9708,7.9725,7.9821,7.9847,7.9571,7.9571,7.9571,0,0,7.8543,7.8604,7.8664,7.8797,7.8854,7.8957,7.8893,7.9003,7.9081,7.9058,7.92,7.9243,7.933,7.9489,7.9562,7.9529,7.9806,7.9723,7.9734,7.9744,7.9836,7.9863,7.9886,7.958,7.9578,7.9577,0,0,7.8708,7.8763,7.8881,7.894,7.9028,7.9058,7.9086,7.9171,7.9199,7.9341,7.9328,7.942,7.9591,7.9654,7.9709,7.9902,7.9887,7.9932,8.0025,8.0119,8.014,8.016,8.0232,8.0257,7.9948,7.9949,7.9949,0,7.8774,7.8927,7.8944,7.9057,7.9117,7.9101,7.9223,7.928,7.9395,7.9438,7.9399,7.9616,7.9672,7.9848,7.9896,7.9939,7.9975,7.9922,8.0135,8.0155,8.0174,8.0243,8.0269,7.9954,7.9953,7.9953,7.9952,0,7.9005,7.9111,7.9197,7.9309,7.9378,7.9495,7.9532,7.9601,7.9605,7.9639,7.9787,7.9855,7.9966,8.0008,8.0012,8.0186,8.0163,8.013,8.0061,8.0205,8.027,8.0297,7.9961,7.9959,7.9958,7.9956,0,0,7.9206,7.9327,7.9358,7.941,7.9507,7.9591,7.9708,7.9816,7.9877,7.9957,8.0058,8.0204,8.0175,8.0237,8.0249,8.0331,8.0484,8.0288,8.0291,8.0325,8.0684,8.071,8.074,8.0475,8.048,8.0484,8.0678,0,7.9382,7.9589,7.9609,7.9795,7.9896,7.9883,7.9986,8.0058,8.0095,8.0187,8.0227,8.0331,8.0283,8.0321,8.0402,8.0448,8.0557,8.0434,8.0572,8.0577,8.0553,8.0774,8.0801,8.0981,8.0703,8.0708,8.0711,0,7.9616,7.9703,7.9899,7.9986,8.0029,8.0121,8.0223,8.031,8.0393,8.0414,8.0485,8.0486,8.0611,8.0536,8.0709,8.0626,8.0683,8.0715,8.0723,8.0738,8.0654,8.0798,8.1039,8.1067,8.075,8.0747,8.0744,0,7.9747,7.9914,8.0053,8.0098,8.0201,8.0267,8.0313,8.0391,8.0456,8.0545,8.0588,8.0692,8.0749,8.083,8.0861,8.0803,8.1034,8.0961,8.1058,8.1057,8.1108,8.1105,8.1364,8.1141,8.1141,8.114,8.114,0,7.9943,8.0064,8.0114,8.02,8.0337,8.036,8.0495,8.0539,8.0609,8.0705,8.07,8.0791,8.0825,8.0923,8.0947,8.109,8.1115,8.1137,8.1143,8.1139,8.1137,8.1179,8.1168,8.1147,8.1146,8.1144,8.1143,0,8.0113,8.0151,8.0303,8.0389,8.0413,8.051,8.0585,8.067,8.0705,8.0827,8.0857,8.0913,8.1028,8.1066,8.1205,8.1222,8.1388,8.1382,8.1361,8.1362,8.1458,8.1449,8.1755,8.1798,8.1544,8.1546,8.1548,0,8.0237,8.0331,8.0427,8.0491,8.054,8.0642,8.0709,8.0736,8.0806,8.0909,8.0982,8.1095,8.1188,8.1372,8.1427,8.1534,8.1532,8.1632,8.1548,8.1543,8.1537,8.1532,8.1544,8.1648,8.165,8.1653,8.1654,0,8.0455,8.047,8.0565,8.0668,8.0748,8.083,8.091,8.0963,8.1002,8.1082,8.1199,8.127,8.1413,8.1527,8.1637,8.1687,8.1679,8.168,8.1709,8.1707,8.1692,8.1705,8.1406,8.1673,8.1671,8.167,8.1669,8.1668,8.0609,8.0692,8.0774,8.0881,8.0944,8.102,8.1104,8.1151,8.1248,8.1366,8.1376,8.1504,8.1587,8.1734,8.1789,8.1891,8.1863,8.1904,8.1915,8.1925,8.1934,8.1674,8.1911,8.191,8.191,8.1909,8.1909,0,8.0829,8.0881,8.098,8.1092,8.1178,8.1161,8.1249,8.1322,8.1434,8.1512,8.1604,8.174,8.1852,8.1915,8.2028,8.2097,8.2097,8.2126,8.2122,8.2135,8.1951,8.1916,8.2125,8.2125,8.2125,8.2125,8.2124,8.2124,8.0954,8.1096,8.1121,8.1295,8.1347,8.1471,8.1523,8.1594,8.1657,8.1809,8.1902,8.1942,8.2016,8.2134,8.2236,8.2252,8.2295,8.2328,8.2342,8.2169,8.2147,8.2126,8.2094,8.2337,8.2337,8.2518,8.252,8.2521]},{"header":{"parameterUnit":"m.s-1","parameterCategory":1,"la1":30.2991,"la2":30.254,"lo1":-89.0895,"lo2":-89.0444,"dy":0.0017,"dx":0.0017,"nx":28,"ny":28,"refTime":"2025-03-04T09:00:00:Z","depth":0,"parameterNumber":3,"parameterNumberName":"V-component_of_WINDS"},"data":[0,0,0,0,0,0,0,0,0,0,0,0,0,0,0,0,0,0,0,0,0,0,0,0,0,0,0,0,0,0,0,0,0,0,0,0,0,0,0,0,0,0,0,0,0,0,0,0,0,0,0,0,0,0,0,0,0,0,-2.8928,-2.8929,0,-2.8966,-2.8966,-2.8967,-2.8977,-2.8976,-2.8976,-2.8976,-2.9012,-2.9014,-2.9015,0,0,0,0,0,0,0,0,0,0,0,0,0,-2.8866,-2.8867,-2.8928,-2.8929,-2.8929,-2.8966,-2.8966,-2.8967,-2.8977,-2.8976,-2.8976,-2.8976,-2.9012,-2.9013,-2.9015,0,0,0,0,0,0,0,0,0,0,0,0,0,-2.8897,-2.8867,-2.8928,-2.8939,-2.894,-2.8966,-2.8966,-2.8967,-2.8977,-2.8976,-2.8976,-2.8976,-2.9012,-2.9013,-2.9015,-2.9032,0,0,-2.902,-2.9021,0,0,0,0,0,0,0,0,-2.8895,-2.8899,-2.8937,-2.8938,-2.894,-2.8966,-2.8958,-2.8989,-2.8977,-2.8963,-2.8976,-2.8976,-2.8997,-2.9,-2.9008,-2.9034,-2.9036,-2.9021,-2.9022,-2.9022,-2.9023,0,0,0,0,0,0,0,-2.8893,-2.8898,-2.8943,-2.8937,-2.8939,-2.8942,-2.8946,-2.8963,-2.8981,-2.8964,-2.8965,-2.8969,-2.8998,-2.9006,-2.9009,-2.9036,-2.9021,-2.9022,-2.9023,-2.9024,-2.9081,-2.9081,0,0,0,0,0,0,-2.8889,-2.8896,-2.8942,-2.8944,-2.8916,-2.8943,-2.8948,-2.8958,-2.8981,-2.8984,-2.8969,-2.8969,-2.9003,-2.9007,-2.901,-2.9033,-2.9022,-2.9024,-2.9025,-2.908,-2.9081,-2.9082,0,0,0,0,0,0,-2.8888,-2.8893,-2.894,-2.892,-2.8927,-2.8944,-2.8956,-2.8959,-2.8967,-2.8985,-2.8988,-2.8974,-2.9003,-2.9008,-2.9027,-2.9034,-2.9025,-2.9026,-2.908,-2.9081,-2.9081,-2.9079,0,0,0,0,0,0,-2.8886,-2.8893,-2.8899,-2.892,-2.8928,-2.8957,-2.8956,-2.896,-2.897,-2.8971,-2.8991,-2.8994,-2.9003,-2.9025,-2.9029,-2.9037,-2.9028,-2.9079,-2.908,-2.9081,-2.9078,-2.9079,-2.908,0,0,0,0,0,-2.8884,-2.8896,-2.8899,-2.8905,-2.8936,-2.8957,-2.8961,-2.8972,-2.8971,-2.8978,-2.899,-2.8993,-2.9033,-2.9027,-2.9032,-2.904,-2.9079,-2.908,-2.9081,-2.9078,-2.9079,-2.908,0,0,0,0,0,0,-2.8874,-2.8899,-2.8903,-2.8922,-2.8938,-2.8959,-2.8968,-2.8973,-2.8989,-2.8988,-2.9001,-2.9005,-2.9025,-2.9034,-2.9027,-2.9059,-2.9056,-2.9058,-2.9052,-2.9053,-2.9054,-2.9051,-2.9029,0,0,0,0,0,-2.8874,-2.8889,-2.891,-2.8926,-2.8933,-2.8949,-2.8959,-2.8967,-2.8983,-2.8989,-2.9002,-2.9018,-2.9034,-2.9044,-2.906,-2.908,-2.9085,-2.9088,-2.9089,-2.909,-2.9091,-2.9104,-2.9106,-2.9085,-2.9085,-2.9085,0,0,-2.8874,-2.889,-2.8898,-2.8924,-2.8937,-2.8953,-2.8955,-2.8971,-2.8983,-2.8991,-2.9011,-2.9022,-2.904,-2.906,-2.907,-2.9069,-2.9099,-2.9091,-2.9092,-2.9093,-2.9106,-2.9108,-2.9109,-2.9086,-2.9086,-2.9085,0,0,-2.8883,-2.8896,-2.8911,-2.8925,-2.8945,-2.8956,-2.8959,-2.898,-2.8988,-2.9009,-2.9016,-2.9031,-2.9058,-2.9071,-2.9081,-2.9098,-2.9102,-2.9103,-2.9107,-2.912,-2.9122,-2.9123,-2.913,-2.9132,-2.9104,-2.9104,-2.9104,0,-2.888,-2.8905,-2.8918,-2.8935,-2.8946,-2.8956,-2.8972,-2.8984,-2.9008,-2.9016,-2.9015,-2.9051,-2.9063,-2.9088,-2.9092,-2.91,-2.9105,-2.91,-2.912,-2.9122,-2.9124,-2.913,-2.9133,-2.9104,-2.9104,-2.9104,-2.9104,0,-2.8901,-2.8918,-2.8928,-2.8953,-2.8965,-2.8981,-2.8997,-2.9009,-2.9016,-2.9027,-2.9049,-2.9065,-2.9085,-2.9092,-2.9098,-2.9118,-2.9117,-2.9118,-2.9115,-2.9126,-2.9132,-2.9135,-2.9104,-2.9104,-2.9104,-2.9104,0,0,-2.8903,-2.8936,-2.894,-2.8952,-2.8976,-2.8989,-2.9006,-2.9027,-2.9037,-2.9054,-2.9069,-2.9094,-2.9096,-2.9107,-2.9116,-2.9127,-2.9141,-2.9127,-2.9127,-2.9129,-2.9165,-2.9164,-2.9166,-2.9144,-2.9144,-2.9145,-2.9163,0,-2.8915,-2.8946,-2.896,-2.8985,-2.9002,-2.9013,-2.9028,-2.9045,-2.9057,-2.9073,-2.9086,-2.9103,-2.9104,-2.9111,-2.9123,-2.9136,-2.9148,-2.9135,-2.9158,-2.9159,-2.9153,-2.917,-2.9168,-2.9185,-2.9166,-2.9166,-2.9167,0,-2.8932,-2.8951,-2.8978,-2.9003,-2.901,-2.9023,-2.9045,-2.906,-2.908,-2.9088,-2.9102,-2.9111,-2.913,-2.9127,-2.9154,-2.9145,-2.9156,-2.9164,-2.9165,-2.9167,-2.9163,-2.9172,-2.919,-2.9193,-2.9171,-2.917,-2.917,0,-2.8932,-2.8963,-2.8984,-2.8994,-2.9023,-2.9032,-2.9045,-2.9064,-2.9077,-2.9095,-2.9104,-2.9124,-2.9135,-2.9151,-2.9165,-2.9161,-2.9192,-2.9189,-2.9199,-2.9199,-2.9204,-2.9203,-2.9224,-2.9211,-2.9211,-2.9211,-2.9211,0,-2.8943,-2.896,-2.8985,-2.8997,-2.9017,-2.9033,-2.9052,-2.9065,-2.9083,-2.9099,-2.9109,-2.9124,-2.9142,-2.9159,-2.917,-2.9192,-2.9197,-2.9204,-2.9207,-2.9203,-2.9202,-2.9209,-2.9209,-2.9211,-2.9211,-2.9211,-2.9211,0,-2.8945,-2.8962,-2.8986,-2.9012,-2.9019,-2.9033,-2.9055,-2.9068,-2.9082,-2.9102,-2.9108,-2.9128,-2.9149,-2.9165,-2.9192,-2.92,-2.9223,-2.9226,-2.9216,-2.9218,-2.9227,-2.9226,-2.9253,-2.9257,-2.9241,-2.9241,-2.9241,0,-2.8951,-2.8965,-2.8993,-2.9005,-2.9018,-2.9037,-2.905,-2.9067,-2.908,-2.9106,-2.9116,-2.9138,-2.9157,-2.919,-2.9208,-2.9229,-2.9232,-2.924,-2.9235,-2.9232,-2.9233,-2.9232,-2.9234,-2.9241,-2.9241,-2.9241,-2.9241,0,-2.8961,-2.897,-2.8989,-2.9012,-2.9028,-2.9046,-2.9065,-2.9074,-2.9095,-2.9109,-2.9132,-2.9147,-2.9176,-2.9198,-2.9221,-2.9234,-2.9241,-2.9243,-2.9246,-2.9242,-2.9237,-2.9241,-2.9218,-2.9242,-2.9242,-2.9242,-2.9241,-2.9241,-2.8966,-2.8979,-2.9001,-2.9023,-2.9039,-2.9057,-2.9072,-2.9088,-2.9107,-2.9132,-2.9141,-2.9165,-2.9186,-2.9219,-2.9232,-2.9251,-2.9251,-2.9256,-2.9257,-2.9258,-2.9258,-2.9234,-2.9255,-2.9255,-2.9255,-2.9255,-2.9255,0,-2.8976,-2.8992,-2.9012,-2.9039,-2.9056,-2.9063,-2.9085,-2.9099,-2.9119,-2.9139,-2.9158,-2.9185,-2.9207,-2.9227,-2.9251,-2.9262,-2.9266,-2.9268,-2.9267,-2.927,-2.9256,-2.9251,-2.9264,-2.9264,-2.9264,-2.9264,-2.9264,-2.9264,-2.8984,-2.9007,-2.9019,-2.905,-2.9066,-2.909,-2.9102,-2.9119,-2.9135,-2.9165,-2.9184,-2.9197,-2.9218,-2.9243,-2.9264,-2.927,-2.9278,-2.9279,-2.9285,-2.9272,-2.9271,-2.9269,-2.9265,-2.928,-2.928,-2.9297,-2.9297,-2.9297]}]]